Vertical_Velocity
0 -0 -0 0 0 0 0 -0 -0 -0 -0 0 0 0 0 1 1 1 1 1 1 1 1 0 0 0 1 0 -0 -0 -0 1 1 1 1 1 1 1 1 1 1 1 1 1 1 1 1 1 1 0 -0 -0 -0 0 0 0 0 0 0 0 -0 -1 -1 -1 -1 -2 -2 1 4 4 -1 -1 -2 -2 -1 -1 -1 -1 -1 -1 -1 -1 -1 -1 -1 -0 -0 -0 -0 -0 -0 0 0 0 1 1 1 0 0 0 0 0 0
1 0 0 0 1 1 1 -0 -0 -1 -0 -0 0 0 0 0 1 1 1 1 1 1 1 0 1 2 4 1 -0 -1 -1 2 3 4 2 1 0 0 0 0 0 1 1 1 1 1 2 2 1 1 0 -0 -0 -0 0 0 0 0 0 -0 -0 -1 -1 -1 -1 -2 -2 0 2 2 -1 -2 -2 -2 -2 -2 -1 -1 -1 -1 -1 -1 -1 -1 -1 -0 -0 -0 -0 -0 -0 0 0 0 1 1 0 0 0 0 0 0 0
1 1 0 1 1 1 1 0 -0 -1 -1 -0 -0 0 0 0 1 2 2 0 0 1 1 1 3 4 1 0 0 0 1 3 2 0 -1 -1 -1 -1 -1 0 0 0 0 0 1 1 3 3 2 1 1 -0 -0 -0 0 0 0 0 0 -0 -0 -1 -1 -1 -1 -1 -2 -1 -0 0 0 -2 -2 -2 -2 -2 -3 -3 -2 -2 -2 -2 -1 -1 -1 -0 -0 -0 -0 -0 -0 0 0 0 0 0 0 0 0 -0 0 0 0
1 1 0 0 1 1 1 0 -0 -1 -1 -0 -0 0 0 0 1 1 1 0 0 0 0 1 1 2 0 0 0 1 2 2 1 -0 -2 -2 -0 1 1 4 2 -1 -2 -1 0 2 3 3 2 2 1 -0 -0 -0 -0 0 0 0 0 -0 -0 -1 -1 -1 -1 -1 -2 -1 -1 -1 -1 -1 -2 -1 1 -1 -2 -2 -1 -2 -2 -2 -2 -1 -1 -1 -0 -0 -0 -0 0 0 0 0 0 0 0 0 0 -0 -0 -0 -0
1 0 -0 -0 -0 0 1 0 -0 -1 -1 -0 0 0 0 1 1 1 0 0 0 -0 -1 -0 -0 -1 0 1 1 1 1 1 2 2 1 -0 1 2 1 2 1 -1 -3 -2 0 3 4 2 0 0 0 -0 -1 -1 -0 0 1 1 0 0 -0 -1 -1 -1 -1 -1 -1 -1 -1 -1 -1 0 0 0 -1 -1 -2 -2 -2 -2 -2 -2 -2 -2 -1 -1 -1 -0 -0 -0 0 0 0 0 0 0 0 -0 0 0 -0 -0 -0
1 0 -1 -1 -0 0 0 -0 -0 -1 -0 -0 0 1 1 1 1 1 0 0 1 2 3 2 -1 -3 -0 1 1 1 3 1 1 1 0 0 1 3 3 0 -0 -0 -1 -1 0 2 3 4 -0 -3 0 0 -0 -0 -0 0 1 1 0 0 -0 -1 -1 -1 -1 -1 -1 -1 -1 1 6 8 5 0 -2 -2 -2 -3 -2 -2 -2 -2 -2 -2 -1 -1 -1 -1 -1 -0 -0 0 0 0 0 0 0 0 0 0 -0 -0 -0
1 0 -0 -0 0 0 -0 -0 -0 -1 -0 0 0 1 2 3 3 2 -1 -0 1 1 1 0 -1 -1 -1 -1 0 1 1 1 2 2 0 -1 -1 -0 -0 -1 0 1 1 0 1 1 2 5 2 -2 0 1 1 0 -0 0 0 1 0 0 -0 -1 -1 -1 -1 -1 -1 -1 -1 3 13 10 3 -3 -2 -2 -3 -3 -2 -2 -2 -2 -2 -2 -2 -1 -1 -1 -1 -1 -0 0 0 0 0 0 0 0 0 0 0 0 -0
1 1 0 0 1 1 0 -0 -0 -0 0 0 1 1 3 4 3 2 -0 0 0 0 1 0 -0 -0 -0 -1 -0 0 0 1 2 3 4 0 -1 -2 -1 -0 1 1 1 1 1 1 2 3 3 2 1 3 1 -1 -1 -1 -0 -0 -0 -0 -0 -1 -1 -1 -1 -1 -1 -1 0 3 11 5 0 -3 -1 -2 -2 -2 -2 -2 -2 -2 -2 -2 -2 -2 -1 -1 -1 -1 -1 -0 0 0 0 0 0 0 0 0 0 0 0
1 1 1 0 1 1 1 0 0 0 1 1 1 1 2 2 1 1 1 1 1 0 0 1 0 -0 -0 -0 0 0 0 -0 0 1 3 2 2 3 2 2 2 2 2 1 1 2 3 4 2 -0 1 8 7 3 -1 -1 -0 -0 -0 -0 -1 -1 -1 -1 -1 -1 -1 -0 -0 1 4 1 -0 -0 0 -1 -1 -2 -2 -2 -2 -2 -2 -2 -2 -2 -1 -1 -1 -1 -1 -1 -0 0 0 0 0 0 0 0 0 0 0
2 1 0 0 0 0 1 0 -0 -0 0 1 1 1 1 1 1 1 1 2 1 1 0 0 1 1 0 0 0 0 0 -0 -0 -0 -0 0 2 4 4 1 0 1 2 1 1 1 3 1 -0 -1 -0 3 7 8 4 5 2 -1 -0 -1 -1 -1 -1 -1 -1 -1 -0 -0 -0 0 1 1 1 1 0 -0 -1 -2 -2 -2 -2 -1 -1 -2 -2 -2 -2 -1 -1 -1 -1 -1 -1 -0 0 0 0 0 0 0 1 1 1
4 1 -1 -1 -0 -0 0 -0 -0 -1 -0 0 1 1 1 2 2 1 2 2 2 1 1 0 1 1 1 0 0 0 1 0 0 -0 -0 -1 2 4 4 1 0 0 1 -0 -1 -1 0 0 0 -0 0 1 2 3 3 7 4 -0 0 -0 -1 -1 -1 -1 -1 -0 -0 -0 -0 2 7 5 2 0 0 -0 -1 -1 -2 -2 -1 -1 -1 -2 -2 -2 -2 -2 -1 -1 -1 -1 -1 -1 -0 -0 -0 0 0 1 1 1 1
2 -0 -2 -1 -1 -1 -0 -0 -1 -1 -1 -1 0 1 1 1 2 2 2 2 2 2 1 0 0 0 1 0 0 1 1 1 0 0 0 0 1 1 1 1 0 -0 0 -0 -1 -0 0 1 1 0 0 1 1 1 0 2 2 1 0 -0 -0 -1 -1 -1 -0 0 0 -0 0 3 10 6 2 -0 -1 -1 -1 -1 -1 0 0 -1 -1 -1 -2 -1 -2 -2 -2 -1 -1 -1 -1 -1 -0 -0 -0 -0 0 0 1 1 1
0 0 -1 -1 -1 -1 -0 -1 -1 -1 -1 -1 -1 0 1 1 2 2 2 2 2 2 1 1 1 1 1 1 1 1 1 1 1 1 1 1 1 0 0 0 -0 -1 -1 -1 -0 0 1 1 1 0 0 1 1 1 1 1 1 1 1 0 -0 -0 -0 -0 -0 0 0 0 -0 1 5 3 1 0 -0 -1 -1 0 3 10 6 -0 -1 -1 -1 -1 -1 -1 -1 -1 -1 -1 -1 -1 -0 -0 -0 -0 0 0 1 1 1
1 1 1 -0 -0 0 1 -0 -1 -0 -1 -1 -0 0 1 1 2 2 3 2 2 2 2 3 2 2 2 2 2 2 1 1 1 1 2 1 1 0 0 0 -0 -1 -1 -1 0 1 1 1 1 1 0 1 1 1 1 2 2 1 1 0 0 -0 -0 -0 0 0 1 0 -0 0 2 3 2 1 -0 -0 -0 2 7 10 5 -1 -1 -2 -1 -1 -1 -1 -1 -1 -1 -0 -0 -0 -0 -0 -0 -0 -0 0 0 1 1
0 0 1 -0 1 2 3 1 0 -0 0 0 0 1 1 2 3 3 3 3 3 3 3 6 6 4 2 3 4 4 2 2 2 2 2 2 1 1 0 0 -0 -0 -1 -0 0 1 1 1 1 1 1 1 1 1 1 1 2 2 1 1 0 -0 -0 -0 0 0 0 0 0 1 4 8 5 0 0 0 1 2 5 4 3 1 -2 -2 -2 -1 -0 -0 -1 -1 -1 -0 -0 -0 0 0 -0 -0 -0 0 0 0 0
-0 -0 -0 -1 -1 -0 0 3 2 -0 1 1 1 2 2 3 3 4 4 4 4 4 3 7 7 6 5 6 7 6 3 2 2 2 2 2 1 1 0 0 0 0 0 0 0 0 1 1 1 1 1 1 1 1 1 1 1 1 1 0 0 -0 0 0 0 0 1 3 2 1 5 10 7 2 -0 0 1 1 2 2 5 6 -3 -0 0 -0 0 0 -0 -0 -0 -0 -0 0 0 0 0 0 0 0 0 0 0
-0 -0 -1 -1 -1 -1 -0 2 2 1 1 2 2 2 2 2 3 3 3 3 3 3 2 3 4 6 6 6 5 4 2 1 1 1 1 2 1 1 1 0 -0 0 0 0 0 -0 0 0 1 1 1 1 1 1 1 1 1 1 1 0 0 0 0 2 2 1 1 8 7 4 6 10 10 6 -0 -0 -0 0 0 0 7 10 -2 6 5 2 0 1 0 0 -0 -0 -0 -0 0 0 0 0 0 1 1 1 1
0 -1 -1 -1 -1 -1 0 4 5 4 2 2 2 2 2 1 1 1 1 1 2 1 1 1 2 3 3 3 3 2 1 1 1 0 0 1 1 1 1 0 0 0 0 0 0 -0 -0 0 0 1 1 1 1 1 1 1 1 1 1 1 0 1 1 3 4 3 2 10 12 10 9 10 10 8 1 -1 -1 -1 -1 -2 6 11 3 9 7 3 -1 0 1 0 -0 -1 -1 -0 -0 0 0 0 1 1 1 1 1
1 -1 -1 -0 -0 1 3 8 8 5 1 1 1 1 1 0 -0 -0 0 1 1 0 -0 -0 1 1 1 1 2 2 1 1 1 0 -0 0 1 1 1 0 0 0 0 0 0 -0 -0 -0 0 1 1 1 1 1 1 1 1 1 1 1 1 1 1 2 4 6 6 11 12 11 8 6 7 6 1 0 -0 -0 -0 -2 4 10 11 6 4 1 -3 0 1 0 -0 -1 -1 -1 -0 -0 0 0 0 1 1 1 1
2 1 2 2 1 2 5 8 6 3 0 1 1 1 0 0 0 0 1 1 1 0 -0 -0 0 1 1 1 2 2 1 1 1 0 0 0 0 1 0 0 0 0 0 -0 -0 -0 -0 -0 0 1 1 1 1 1 1 1 1 1 1 1 1 1 1 1 3 6 9 8 8 8 8 5 6 7 1 1 0 -0 -0 -1 2 6 10 2 1 2 -3 -0 1 0 0 -0 -1 -1 -0 -0 -0 0 0 0 1 1 2
2 2 3 2 1 1 2 4 3 1 0 0 0 1 0 1 1 1 1 1 1 0 0 0 1 2 2 2 2 1 1 1 1 1 1 1 1 1 1 1 0 0 -0 -0 -0 -0 -0 0 0 1 1 1 1 1 1 1 1 1 1 1 1 1 1 1 2 3 5 4 4 6 9 9 9 7 0 0 0 -0 -0 -1 -0 1 1 -2 1 3 -1 0 0 0 0 -0 -0 -0 -0 -0 -0 -0 -0 0 1 1 1
2 2 1 0 -0 -0 0 1 2 1 0 0 0 1 1 1 1 1 1 0 0 0 1 1 1 1 2 2 2 1 1 2 2 2 1 1 1 1 1 1 0 0 -0 -0 -0 -0 0 0 1 1 1 1 0 0 1 1 1 1 1 1 1 1 1 1 1 2 2 3 3 4 8 11 10 6 -0 0 0 -1 -1 -1 -1 -2 -1 -1 2 5 2 -0 -0 0 0 0 -0 -0 -0 -0 -0 -0 -0 0 0 1 1
2 2 1 0 -1 -1 -0 1 1 1 -0 0 0 0 0 1 1 0 -0 -1 -1 -0 1 1 1 0 1 1 3 3 3 2 2 2 1 1 1 1 1 1 1 1 0 0 0 0 0 1 1 1 1 1 0 0 0 0 1 1 1 1 1 1 2 2 2 2 2 2 3 3 5 9 8 5 1 1 0 -0 -0 -1 -2 -0 8 5 5 6 5 -0 -1 0 0 0 0 -0 -0 -0 -0 -0 -0 0 0 0 1
2 2 1 -0 -1 -1 -0 0 1 0 -1 -0 -0 0 -0 0 1 0 -1 -1 -1 -0 0 -0 -1 -1 -0 1 5 7 5 2 1 1 1 1 1 2 2 2 1 1 1 1 0 0 1 1 1 1 1 1 0 0 0 0 1 1 1 1 2 2 2 2 2 2 2 2 2 2 3 5 7 6 4 1 0 0 0 -1 -1 3 19 11 4 3 9 4 0 -1 1 0 0 0 -0 -0 -0 -0 -0 -0 0 0 0
2 2 0 -0 -1 -1 -1 0 0 -0 -1 -1 -0 0 -0 0 1 1 -0 -1 -1 -1 -2 -1 -1 -0 1 1 3 4 3 2 1 1 1 2 2 2 2 2 1 0 1 1 1 1 1 1 1 1 1 1 0 0 0 0 1 1 1 2 2 2 2 2 2 2 2 2 2 2 2 3 5 7 6 2 0 0 0 -1 -2 4 21 18 8 2 10 8 3 -1 1 1 0 0 -0 -0 -1 -1 -1 -0 -0 0 0
2 2 0 0 -0 -1 -1 -0 0 -0 -2 -2 -1 0 0 0 1 1 1 -0 -1 0 3 4 1 -0 1 1 1 1 2 2 2 1 1 2 3 2 2 1 1 0 1 1 1 1 1 1 1 1 1 1 1 1 1 1 1 1 1 2 2 2 2 2 2 2 2 2 2 2 2 2 3 5 7 4 2 1 2 -1 -1 2 10 19 13 7 9 12 6 -1 0 0 0 0 -0 -0 -1 -1 -1 -1 -0 -0 0
2 2 1 0 0 -0 -1 -1 -1 -1 -2 -1 0 1 1 1 1 2 2 1 -0 0 4 3 1 -1 0 1 1 1 1 2 2 1 2 2 3 3 3 2 2 1 2 2 2 2 1 0 0 0 1 1 1 1 1 1 1 1 1 1 2 2 2 2 2 2 2 2 2 2 1 2 2 3 4 6 5 4 4 -2 1 5 2 14 12 6 8 14 9 1 -1 0 0 0 0 -0 -0 -1 -1 -1 -1 -0 -0
1 1 1 1 0 0 -0 -1 -1 -1 -1 0 1 1 2 2 2 2 2 1 1 1 1 0 -0 -1 -1 0 1 0 -0 0 1 1 2 2 3 3 4 3 3 3 2 3 2 2 0 -0 -0 -0 0 1 1 1 1 1 1 1 1 1 2 2 2 2 2 2 2 2 2 2 1 1 2 2 2 5 6 5 -0 -3 3 9 4 10 8 4 5 12 9 1 -2 -1 0 0 0 0 -0 -0 -1 -1 -1 -1 -0
0 0 1 1 1 1 0 -0 -1 -1 -1 1 1 1 1 2 2 2 2 2 2 1 1 1 0 -0 -1 -1 -1 -2 -2 -1 0 1 1 2 2 3 4 3 3 3 2 3 2 2 1 0 0 0 0 1 1 1 1 1 1 1 1 1 1 2 2 2 2 2 2 2 2 1 1 1 1 1 1 2 3 3 -1 -0 5 10 8 9 14 15 6 6 4 1 -3 -1 -0 -0 0 0 -0 -0 -1 -1 -1 -1 -1
-1 -1 0 0 1 1 0 -0 -1 -1 -1 2 2 2 1 1 1 1 2 1 1 1 1 1 1 0 -0 -0 0 2 2 2 2 1 1 1 1 2 3 3 2 2 2 2 2 2 2 1 1 1 1 1 1 1 1 1 1 1 1 1 1 2 2 2 2 2 2 2 2 2 1 1 1 1 1 1 2 3 4 2 4 7 6 5 11 15 9 0 1 3 -2 -1 -1 -1 -0 0 0 -0 -0 -0 -1 -1 -1
-1 -1 -0 -0 0 0 0 0 -1 -1 -1 1 2 3 2 1 1 1 1 1 1 1 1 1 2 1 1 0 2 5 9 6 3 1 0 0 0 1 2 2 2 2 2 2 2 3 3 2 1 1 1 1 1 0 0 1 1 1 1 1 1 2 2 2 3 3 3 2 2 2 2 1 1 1 1 1 1 3 6 5 4 3 2 1 3 6 11 1 4 8 3 0 -0 -0 0 0 0 -0 -0 -0 -0 -0 -1
-0 -1 -1 -0 -1 -1 -0 0 -0 -1 -1 0 1 2 1 2 2 1 0 1 2 2 2 1 1 2 2 2 2 3 7 5 3 0 -1 -0 0 1 1 2 2 2 2 2 3 3 2 2 2 1 1 1 0 -0 -0 0 1 1 0 1 1 2 2 2 2 3 3 2 2 2 2 2 2 2 2 1 1 1 3 6 6 4 2 2 1 3 13 8 6 6 9 7 4 1 1 0 0 0 0 0 -0 -0 -1
1 0 -1 -0 -1 -2 -1 0 -0 -1 -1 0 1 1 1 2 1 1 1 1 2 2 1 0 0 0 2 3 3 3 4 3 2 1 -0 -0 -0 -0 0 2 2 2 2 3 3 2 2 2 2 2 1 1 0 -1 -1 -0 0 0 0 0 1 1 2 2 2 2 3 3 3 2 2 2 2 2 2 1 1 1 2 4 7 6 2 4 4 4 8 6 2 -0 6 11 7 2 0 1 0 0 0 0 0 0 -0
2 1 0 -0 -1 -2 -1 -1 -1 -1 -0 0 0 0 0 1 1 1 1 1 1 2 1 -0 -1 -1 0 2 3 4 4 3 3 2 1 1 -0 -1 -1 1 2 2 3 3 2 2 1 1 1 1 1 1 -0 -1 -1 -1 -0 -0 0 0 0 1 1 2 2 2 3 3 3 3 3 2 2 2 2 1 1 1 1 3 6 8 5 5 7 8 5 3 0 0 3 6 7 5 1 0 0 0 0 0 1 1 0
3 2 1 1 -0 -1 -1 -1 -1 -0 0 1 0 0 0 1 1 0 1 1 1 2 1 0 -1 -1 -1 1 2 4 4 3 2 2 3 2 1 -0 -1 -0 0 1 2 2 2 2 1 1 1 1 1 0 -0 -1 -1 -1 -1 -0 -0 -0 0 0 1 1 2 2 3 3 3 3 3 3 2 2 2 2 1 0 -0 0 3 6 8 2 6 10 9 7 9 9 7 2 3 5 6 1 -0 -0 0 1 1 1 1
3 3 2 2 1 0 -1 -1 -1 0 1 1 1 0 0 1 1 1 1 0 1 1 0 1 0 -0 -1 0 2 3 3 2 1 2 3 3 2 1 1 0 0 0 1 2 2 2 2 2 2 1 1 0 -0 -1 -1 -1 -1 -0 -0 -0 -0 -0 0 1 2 2 3 3 3 3 3 3 2 2 2 2 1 0 -0 -1 0 2 5 1 3 7 8 7 8 8 4 0 -0 2 8 3 -0 -1 0 1 1 1 1
3 3 3 2 1 1 0 -0 0 1 2 2 1 1 1 1 1 1 0 0 0 0 -0 1 1 0 0 0 1 2 2 2 1 1 2 2 2 2 3 1 1 1 1 1 1 1 2 2 2 1 1 0 -0 -0 -1 -1 -0 0 -0 -0 -0 -0 0 1 1 2 3 3 3 3 3 3 2 2 2 2 1 1 -0 -1 -1 0 2 2 2 3 7 5 3 0 -1 -2 1 7 11 8 2 -1 1 1 1 1 1
2 2 2 2 1 1 1 0 1 2 3 3 2 2 2 1 1 1 0 0 -0 -1 -0 1 1 0 1 1 1 1 2 2 2 2 1 1 2 3 3 2 2 2 1 1 1 1 2 2 2 2 1 1 0 -0 -1 -0 0 0 0 0 0 0 0 0 1 1 2 2 3 3 3 3 3 2 2 2 2 1 -0 -1 -1 -0 1 1 1 1 4 4 1 0 7 6 10 14 13 11 6 1 1 1 1 1 1
1 1 2 2 1 1 0 1 2 3 3 4 3 2 2 1 1 0 1 0 -0 -1 1 0 1 1 1 1 1 1 1 2 2 2 0 1 2 2 2 2 1 1 1 1 2 2 2 2 2 2 1 1 0 -1 -1 0 1 1 1 1 1 1 1 0 0 0 1 2 2 3 3 3 3 2 2 2 2 1 0 -0 -0 -0 0 0 -0 -1 -0 1 -0 2 11 15 17 16 10 9 9 7 -0 1 1 1 1
1 1 1 1 1 0 0 1 2 3 4 4 3 2 2 2 1 0 1 0 0 -0 0 0 1 1 1 1 1 1 1 2 2 1 -0 1 2 2 1 1 1 1 1 2 2 3 2 2 2 2 1 1 -0 -1 0 1 1 1 1 2 2 2 1 0 -0 -0 0 1 2 3 3 3 3 3 2 2 2 2 1 0 -0 -0 0 0 -0 -1 -2 3 3 4 9 14 13 9 4 2 4 5 -2 -1 -0 0 1
1 1 1 1 1 0 1 1 2 3 4 3 3 2 1 1 1 0 0 1 1 1 0 0 1 1 0 1 1 1 0 2 2 1 0 1 1 1 0 0 1 1 1 2 2 2 3 3 2 1 1 -0 -0 0 1 1 1 1 1 2 3 3 2 1 -0 -0 -0 1 2 3 3 3 3 3 2 2 2 1 1 1 0 0 1 1 0 -1 -2 3 5 6 7 7 4 2 4 3 1 -3 -5 -2 -1 0 1
2 2 1 1 1 1 2 0 1 3 4 4 3 3 2 1 0 -0 1 1 2 2 2 1 -0 -0 -0 0 1 2 1 2 2 1 1 1 1 0 -1 0 1 1 2 1 1 1 2 2 2 2 0 -0 0 1 1 1 1 1 2 3 3 3 2 1 0 -0 -0 1 2 2 3 4 3 3 3 2 1 1 1 1 1 1 1 1 1 0 -1 -0 3 6 6 1 0 4 8 8 5 0 -2 -1 -0 1 1
2 3 2 1 1 1 1 0 1 3 3 4 4 3 3 0 0 0 1 2 3 3 2 1 -0 -1 -1 1 2 2 2 2 2 2 1 1 1 0 -0 -0 1 2 1 1 1 1 1 2 2 2 0 0 1 1 1 1 1 2 2 2 2 2 1 1 0 0 0 0 1 2 3 4 4 3 3 2 2 1 1 1 1 1 2 2 2 1 1 -1 1 2 3 -1 -1 3 7 7 8 8 6 3 2 2 2
2 3 3 2 1 1 1 1 1 2 3 3 4 3 3 1 1 1 0 2 3 3 2 1 -0 -1 -1 -0 1 2 3 2 2 2 1 1 1 0 0 0 1 1 1 1 1 0 1 1 1 1 1 1 1 1 1 2 1 1 1 1 1 1 1 0 1 0 0 -0 0 1 2 3 3 3 3 3 2 1 1 1 2 2 2 2 2 2 1 0 0 0 0 -0 -0 0 2 7 10 12 9 7 4 2 2
1 2 3 2 2 2 1 0 1 1 2 3 3 3 2 2 2 2 1 1 2 2 1 1 0 -1 -2 -1 0 2 3 2 2 2 1 0 0 1 1 0 1 1 1 1 1 1 1 0 0 0 0 1 2 2 2 2 1 0 -0 0 0 0 0 0 0 1 0 -0 0 1 2 2 3 3 3 2 2 2 2 2 2 2 3 3 3 2 2 1 1 0 0 1 0 0 1 8 11 10 5 6 4 1 -1
-0 1 1 1 2 1 -0 0 0 1 1 2 3 3 2 2 2 2 2 1 1 2 1 1 1 0 -1 -1 -0 1 2 3 3 2 1 0 0 1 1 0 1 1 0 0 1 1 0 -0 -0 -0 -0 0 1 2 3 2 1 -0 1 1 1 0 0 -0 0 1 0 0 0 1 1 2 2 2 2 2 2 2 2 2 2 2 3 3 3 3 2 2 1 1 1 1 1 1 2 5 5 4 4 4 3 1 -2
-1 -0 0 1 1 1 -0 0 -0 -0 1 2 2 2 2 2 2 2 1 1 1 1 1 2 2 2 0 -0 -0 0 1 2 3 2 1 -0 0 1 1 1 1 1 0 0 1 1 0 -0 -1 -1 -1 -0 1 2 3 2 1 1 2 1 1 1 -0 -0 0 1 0 0 0 1 1 1 1 1 1 1 2 2 3 2 2 2 3 3 3 3 3 2 2 1 1 1 1 2 5 3 2 2 3 3 3 4 2
-3 -1 -1 0 1 1 -0 -0 -1 -1 0 1 1 2 1 1 2 2 0 1 0 -0 0 2 2 2 2 1 0 0 1 1 1 1 0 -0 0 1 1 2 2 1 1 1 1 0 -0 -1 -1 -1 -0 0 1 1 2 1 1 1 1 1 1 1 0 0 0 0 -0 0 1 1 0 0 0 0 1 1 2 2 3 3 2 2 3 3 3 3 3 3 2 2 1 1 1 3 6 3 2 2 2 2 2 3 2
-4 -3 -3 -1 0 1 0 -0 -1 -1 -1 -0 0 0 0 2 2 1 1 1 0 -1 -0 1 2 2 3 2 1 1 1 -0 -1 -0 0 0 0 1 2 3 2 1 2 2 1 -1 -1 -1 -1 -0 1 1 1 1 1 1 1 1 1 2 2 1 1 1 0 -0 -0 0 1 1 0 0 0 0 0 1 2 2 3 3 3 3 3 3 3 3 3 3 3 2 2 1 2 4 7 7 5 3 1 2 3 2 -1
-3 -4 -4 -2 -1 0 1 -0 -0 -1 -2 -1 -1 -0 0 2 2 1 2 1 -0 -1 1 -0 -0 1 2 0 1 2 3 -0 -0 0 1 0 1 2 3 3 2 1 2 2 1 -0 -2 -1 -0 1 2 2 1 1 0 1 1 1 1 3 2 1 1 1 0 -0 0 1 1 1 1 0 0 0 0 1 2 2 2 3 3 3 3 3 2 3 3 3 3 2 2 2 2 3 5 8 7 5 1 1 4 5 2
-3 -4 -4 -3 -2 -1 -1 -1 -0 -1 -2 -1 -1 -0 1 1 1 1 2 -0 -1 -1 1 -1 -2 -1 2 -0 -1 1 5 1 1 2 -0 -3 -0 2 -0 -1 -0 0 0 2 2 1 -1 -1 -0 1 3 2 2 1 0 0 0 0 1 2 2 1 1 1 0 -0 0 0 0 1 1 1 0 0 1 1 1 2 2 2 3 2 2 2 2 2 2 2 2 2 2 2 3 3 3 5 6 5 4 1 2 4 3
-3 -3 -4 -3 -3 -3 -3 -1 -1 -2 -2 0 0 -0 0 1 1 0 0 -1 -2 -3 -0 -1 -2 -2 -1 -0 -1 -0 5 2 2 2 -2 -5 -3 -0 -2 -0 1 1 2 7 4 0 1 -1 -1 2 4 3 2 2 -1 -0 -0 0 0 1 1 1 1 1 0 -1 -0 -0 0 1 2 1 1 1 1 1 1 2 2 2 2 2 2 2 1 1 2 2 2 2 2 2 3 3 3 3 3 3 3 1 0 -0 -0
-2 -2 -3 -3 -3 -3 -3 -1 -2 -3 -1 1 0 -1 0 1 0 -1 -1 -1 -2 -3 -3 -3 -2 -1 -2 0 0 -0 1 3 2 0 -0 -3 -3 -2 1 5 2 -1 6 8 3 -2 3 0 1 3 3 3 2 1 -1 -0 -1 -1 0 1 1 0 1 0 -0 -0 0 -0 0 1 1 1 1 1 1 1 1 1 2 2 1 1 1 1 1 1 1 2 2 2 2 2 2 3 3 2 2 2 2 1 0 -0 -1
-2 -2 -2 -2 -2 -2 -1 -2 -3 -3 -1 -1 -1 -0 0 1 -0 -1 -1 -1 -2 -3 -3 -4 -2 0 -1 -1 0 0 -2 3 3 1 1 -2 -2 -2 -2 1 -2 -4 2 3 1 -2 -1 2 2 1 -1 4 3 -0 -1 -0 -1 -2 1 0 -0 0 1 0 0 1 1 -1 -1 0 1 0 0 0 1 0 0 1 1 1 1 1 1 1 1 1 2 2 2 2 2 2 2 3 3 2 2 2 2 1 3 4 2
-3 -3 -2 -2 -2 -1 -1 -2 -2 -2 -2 -3 -1 0 0 -0 -1 -1 -1 -2 -3 -3 -1 -4 -3 -1 0 -2 -1 1 -0 1 2 3 1 -3 -2 -1 -8 -5 -2 0 -1 3 3 -0 -5 4 5 1 -2 5 4 1 -0 -0 -1 -2 -0 -0 -0 0 0 0 1 1 0 -1 -1 0 0 -0 -0 0 0 -0 0 1 1 1 1 1 0 1 1 1 2 2 2 2 1 2 2 3 3 3 2 1 1 2 6 8 4
-3 -3 -2 -3 -2 -1 -2 -1 -0 -1 -3 -2 -1 -1 -1 -1 -1 -2 -1 -2 -3 -2 -2 -3 -4 -3 -2 -1 -1 -0 2 1 2 4 4 -2 -2 -2 -6 -5 -2 -0 0 4 3 -0 -2 5 8 6 -1 4 5 3 -3 -1 -1 -1 -2 -0 0 -0 -0 0 0 0 -0 -0 0 1 -0 -0 -0 0 -0 -0 0 1 1 1 1 1 0 0 1 1 2 2 2 2 1 2 2 3 4 3 2 1 0 3 6 7 5
-3 -3 -3 -4 -3 -2 -2 -0 -0 -1 -2 -1 -1 -2 -2 -2 -1 -1 -2 -2 -2 -3 -4 -2 -3 -4 -6 -2 -2 -1 2 3 2 2 5 -0 -2 -2 -2 -5 -7 -6 1 -3 -3 -1 -2 4 9 8 -5 4 5 1 -4 -1 -1 -1 -1 -0 -0 -0 0 0 0 0 0 1 1 1 -0 0 0 -0 -1 0 1 1 1 1 1 0 0 0 0 1 1 2 2 2 2 2 2 3 4 3 3 1 -0 2 3 4 6
-3 -3 -3 -4 -4 -3 -3 -2 -2 -2 -1 -2 -2 -2 -2 -1 -1 -1 -2 -2 -2 -4 -5 -2 -2 -4 -6 -5 -3 -1 1 2 2 2 4 2 1 -1 -3 -5 -6 -5 -2 -8 -4 2 -1 7 7 2 -4 4 3 0 3 -0 -1 -0 1 -0 -0 0 1 1 1 1 1 1 1 1 -0 0 0 -0 -0 0 1 1 1 1 1 1 1 0 0 0 1 1 2 2 2 2 2 3 4 3 3 2 0 -0 1 3 7
-3 -3 -3 -3 -4 -4 -5 -4 -3 -2 -2 -3 -2 -2 -2 -2 -2 -2 -2 -1 -3 -5 -4 -3 -3 -4 -4 -5 -4 -2 -1 -0 2 4 4 3 1 -1 -0 -3 -4 -5 -6 -5 -0 4 1 5 1 -1 7 4 2 3 8 -2 -2 1 1 -1 -0 1 0 1 1 0 1 1 1 1 1 0 0 0 0 0 1 1 1 0 1 1 1 0 0 0 1 1 2 2 3 3 3 3 4 4 3 2 1 0 3 5 6
-3 -3 -4 -4 -4 -5 -6 -5 -4 -4 -4 -3 -2 -2 -2 -3 -3 -3 -1 -1 -3 -4 -2 -4 -5 -4 -2 -4 -5 -4 -2 -2 1 4 6 5 0 -2 4 -1 -5 -7 -6 -4 -3 -1 2 0 -1 2 9 -1 1 6 3 -4 -2 1 -2 -1 -0 0 -0 0 0 0 1 0 1 1 1 0 0 0 0 0 1 1 0 0 1 1 1 0 0 0 0 1 1 2 3 3 3 4 4 4 3 2 1 1 2 4 6
-2 -2 -3 -4 -5 -5 -6 -6 -6 -5 -5 -3 -3 -3 -3 -3 -3 -3 -1 -2 -2 -2 -2 -4 -4 -4 -4 -5 -4 -3 -4 -2 -1 1 4 5 1 -2 4 -0 -4 -6 -4 -5 -6 -4 1 -2 0 3 1 -1 3 3 -5 -1 2 2 -3 -0 1 1 0 -0 0 1 1 1 1 1 0 0 0 0 1 0 0 0 0 0 0 0 1 1 0 0 0 1 1 2 2 3 4 4 5 5 4 2 1 1 1 2 3
Height
5842 5841 5841 5841 5841 5841 5841 5841 5842 5842 5842 5842 5842 5843 5843 5843 5843 5844 5844 5844 5844 5844 5845 5845 5845 5845 5846 5846 5846 5847 5848 5850 5850 5849 5848 5848 5848 5848 5849 5849 5849 5850 5851 5851 5852 5852 5853 5854 5854 5855 5855 5855 5856 5856 5856 5856 5857 5857 5857 5858 5858 5858 5859 5859 5859 5860 5860 5861 5862 5861 5861 5861 5862 5862 5862 5862 5862 5863 5863 5863 5863 5864 5864 5864 5865 5865 5866 5866 5867 5867 5868 5869 5869 5870 5871 5871 5872 5872 5873 5874 5874 5875 5875
5839 5839 5839 5839 5839 5839 5839 5839 5839 5840 5840 5840 5840 5841 5841 5841 5841 5841 5841 5841 5841 5842 5842 5842 5843 5844 5844 5843 5844 5844 5845 5847 5848 5847 5847 5848 5847 5846 5847 5847 5847 5848 5848 5849 5850 5850 5851 5852 5852 5852 5853 5853 5854 5854 5854 5855 5855 5856 5856 5856 5856 5856 5857 5857 5857 5858 5858 5859 5859 5859 5859 5860 5860 5861 5861 5861 5861 5861 5861 5861 5862 5862 5863 5863 5863 5864 5864 5865 5865 5866 5866 5867 5868 5869 5869 5870 5871 5871 5872 5872 5873 5874 5874
5837 5837 5837 5837 5837 5837 5837 5837 5837 5837 5837 5838 5838 5838 5838 5839 5839 5839 5839 5840 5839 5839 5839 5841 5841 5840 5841 5841 5842 5842 5842 5842 5843 5844 5845 5845 5845 5845 5845 5845 5845 5846 5846 5847 5847 5848 5848 5849 5850 5850 5851 5851 5852 5852 5852 5853 5853 5854 5854 5854 5855 5855 5855 5855 5856 5856 5856 5856 5858 5858 5857 5858 5858 5859 5860 5860 5860 5860 5860 5860 5861 5861 5861 5862 5862 5862 5863 5863 5864 5864 5865 5866 5866 5867 5868 5868 5869 5870 5871 5871 5871 5872 5873
5835 5834 5834 5835 5835 5835 5835 5835 5835 5835 5835 5836 5836 5836 5836 5836 5836 5837 5837 5837 5837 5836 5836 5837 5837 5837 5838 5839 5839 5840 5841 5840 5840 5841 5841 5842 5843 5844 5844 5845 5844 5843 5844 5845 5845 5846 5846 5847 5847 5848 5848 5849 5850 5850 5851 5851 5851 5852 5852 5852 5853 5853 5853 5854 5854 5854 5855 5855 5855 5856 5856 5856 5856 5857 5859 5858 5858 5858 5858 5859 5859 5860 5860 5860 5861 5861 5862 5862 5862 5863 5864 5864 5865 5866 5866 5867 5868 5868 5869 5870 5870 5871 5871
5832 5832 5832 5832 5832 5832 5832 5832 5832 5833 5833 5833 5833 5834 5834 5834 5834 5834 5834 5834 5834 5834 5834 5834 5835 5835 5836 5836 5836 5837 5837 5839 5840 5839 5839 5840 5840 5841 5841 5841 5841 5841 5842 5843 5843 5843 5844 5845 5846 5846 5846 5847 5847 5848 5848 5849 5849 5850 5850 5851 5851 5851 5851 5852 5852 5853 5853 5853 5854 5854 5854 5854 5855 5855 5856 5856 5857 5857 5859 5858 5857 5858 5858 5859 5859 5860 5860 5861 5861 5862 5862 5863 5863 5864 5865 5866 5866 5867 5867 5868 5869 5870 5870
5830 5829 5829 5829 5830 5830 5830 5830 5830 5830 5831 5831 5831 5831 5831 5831 5831 5831 5832 5832 5832 5832 5833 5834 5833 5833 5834 5833 5834 5835 5835 5835 5836 5836 5836 5837 5838 5839 5839 5839 5839 5839 5840 5840 5841 5841 5844 5846 5845 5844 5845 5845 5845 5846 5846 5847 5847 5848 5848 5849 5849 5849 5850 5850 5850 5851 5851 5852 5852 5853 5854 5854 5853 5853 5854 5855 5856 5856 5856 5856 5856 5856 5857 5857 5858 5858 5859 5859 5860 5861 5861 5861 5862 5863 5863 5864 5865 5865 5866 5867 5867 5868 5869
5827 5827 5826 5826 5826 5827 5827 5827 5827 5827 5828 5828 5828 5829 5829 5829 5830 5830 5830 5829 5829 5829 5829 5829 5830 5830 5830 5831 5831 5831 5832 5834 5833 5833 5834 5834 5835 5836 5836 5836 5836 5837 5837 5838 5838 5839 5840 5842 5844 5844 5842 5842 5843 5844 5844 5845 5845 5846 5846 5847 5847 5847 5848 5848 5849 5849 5850 5850 5851 5851 5853 5852 5851 5852 5853 5853 5854 5854 5854 5854 5855 5855 5855 5856 5856 5857 5857 5858 5858 5859 5860 5860 5861 5861 5862 5862 5863 5864 5864 5865 5866 5866 5867
5824 5824 5824 5824 5824 5824 5824 5824 5825 5825 5825 5825 5826 5826 5826 5827 5827 5827 5827 5827 5827 5827 5827 5827 5827 5827 5827 5828 5828 5829 5829 5830 5830 5831 5831 5831 5832 5833 5833 5834 5835 5835 5835 5836 5836 5837 5838 5839 5841 5841 5840 5841 5841 5841 5842 5842 5843 5844 5844 5845 5845 5846 5846 5846 5847 5847 5848 5848 5849 5850 5849 5849 5850 5851 5851 5851 5852 5852 5853 5853 5853 5853 5853 5854 5854 5855 5856 5856 5857 5857 5858 5859 5859 5860 5861 5861 5861 5862 5863 5863 5864 5865 5866
5821 5821 5821 5821 5821 5821 5821 5821 5821 5822 5822 5822 5823 5823 5823 5823 5823 5824 5824 5824 5824 5824 5824 5824 5824 5825 5825 5825 5826 5826 5826 5827 5827 5828 5829 5829 5830 5831 5832 5832 5833 5833 5833 5833 5834 5835 5836 5837 5838 5837 5838 5839 5840 5840 5840 5841 5841 5841 5842 5843 5843 5843 5844 5844 5845 5846 5846 5846 5847 5847 5847 5847 5848 5849 5849 5850 5850 5851 5851 5851 5851 5851 5851 5852 5853 5853 5854 5855 5855 5856 5856 5857 5858 5858 5859 5860 5860 5861 5861 5862 5863 5863 5864
5817 5817 5817 5817 5818 5818 5818 5818 5818 5819 5819 5819 5820 5820 5820 5820 5821 5821 5821 5821 5821 5821 5821 5821 5822 5822 5822 5822 5823 5823 5823 5824 5824 5825 5825 5826 5827 5828 5829 5828 5829 5831 5831 5831 5832 5833 5833 5833 5834 5835 5835 5836 5837 5838 5839 5838 5839 5839 5840 5840 5841 5841 5842 5843 5843 5844 5844 5845 5845 5846 5846 5846 5847 5847 5847 5848 5848 5849 5849 5849 5850 5850 5850 5850 5851 5851 5852 5853 5854 5855 5855 5856 5856 5857 5857 5858 5859 5859 5860 5861 5861 5862 5863
5815 5814 5814 5814 5814 5815 5815 5815 5815 5815 5816 5816 5816 5817 5817 5817 5818 5818 5818 5819 5819 5819 5819 5819 5819 5819 5819 5820 5820 5820 5820 5821 5821 5822 5822 5823 5824 5826 5826 5826 5827 5827 5827 5828 5829 5830 5830 5831 5831 5831 5832 5833 5834 5835 5836 5837 5836 5837 5837 5838 5839 5840 5840 5841 5841 5842 5843 5843 5844 5845 5846 5844 5845 5846 5846 5846 5846 5847 5847 5848 5848 5848 5848 5849 5849 5850 5851 5851 5852 5853 5853 5854 5855 5856 5856 5856 5857 5858 5858 5859 5860 5860 5861
5811 5811 5811 5811 5811 5811 5811 5812 5812 5812 5812 5813 5813 5814 5814 5815 5815 5815 5816 5816 5816 5816 5816 5816 5816 5816 5816 5816 5817 5817 5817 5818 5818 5819 5820 5820 5821 5821 5822 5823 5824 5824 5825 5826 5826 5827 5828 5828 5829 5829 5830 5831 5831 5832 5833 5834 5835 5835 5835 5836 5836 5837 5838 5839 5840 5840 5841 5841 5842 5843 5844 5843 5843 5844 5844 5844 5845 5845 5846 5846 5846 5846 5847 5847 5848 5848 5849 5850 5851 5851 5852 5852 5853 5854 5854 5855 5856 5856 5857 5857 5858 5859 5860
5806 5807 5807 5807 5807 5808 5808 5808 5808 5809 5809 5809 5810 5810 5811 5811 5812 5812 5812 5813 5813 5813 5813 5813 5813 5814 5813 5814 5814 5814 5814 5815 5815 5816 5817 5817 5818 5819 5820 5820 5821 5821 5822 5823 5824 5825 5825 5826 5826 5827 5827 5828 5829 5830 5831 5831 5832 5832 5833 5834 5834 5835 5836 5837 5838 5838 5839 5840 5840 5841 5841 5841 5841 5842 5842 5842 5843 5843 5845 5845 5844 5845 5845 5846 5846 5847 5847 5848 5849 5849 5850 5851 5851 5852 5853 5853 5854 5855 5856 5856 5857 5858 5858
5803 5803 5804 5804 5805 5805 5805 5805 5805 5805 5806 5806 5806 5807 5807 5808 5808 5809 5809 5810 5810 5811 5811 5811 5811 5811 5811 5811 5811 5811 5811 5812 5812 5813 5814 5814 5815 5816 5816 5817 5818 5818 5819 5820 5821 5822 5823 5823 5824 5824 5825 5826 5826 5827 5828 5829 5830 5830 5831 5831 5832 5833 5834 5835 5836 5836 5837 5838 5838 5839 5839 5840 5840 5840 5840 5841 5841 5841 5842 5842 5843 5843 5844 5845 5845 5845 5846 5846 5847 5848 5848 5849 5850 5851 5851 5852 5853 5853 5854 5855 5856 5856 5857
5800 5800 5800 5800 5801 5802 5802 5802 5802 5802 5802 5803 5803 5803 5804 5805 5805 5806 5806 5807 5807 5808 5809 5809 5808 5807 5808 5808 5808 5809 5809 5809 5810 5810 5811 5811 5812 5813 5813 5814 5815 5816 5816 5817 5819 5819 5820 5821 5821 5822 5823 5823 5824 5825 5826 5826 5827 5828 5828 5829 5830 5831 5831 5832 5834 5835 5835 5836 5836 5837 5839 5838 5837 5837 5838 5838 5839 5839 5840 5842 5842 5842 5842 5843 5843 5844 5844 5845 5845 5846 5847 5847 5848 5849 5850 5850 5851 5852 5853 5853 5854 5855 5856
5797 5797 5797 5797 5797 5797 5799 5799 5799 5799 5799 5800 5800 5800 5801 5801 5802 5803 5803 5804 5804 5805 5806 5805 5805 5805 5805 5806 5806 5806 5806 5806 5807 5807 5808 5808 5809 5810 5810 5811 5812 5813 5814 5815 5816 5817 5817 5818 5819 5820 5821 5821 5822 5823 5823 5824 5825 5825 5826 5827 5827 5828 5829 5831 5831 5832 5834 5834 5835 5835 5836 5836 5835 5835 5836 5836 5837 5837 5838 5839 5841 5842 5841 5841 5842 5842 5842 5843 5843 5844 5845 5846 5846 5847 5848 5849 5849 5850 5851 5852 5853 5854 5854
5794 5793 5793 5793 5794 5794 5795 5795 5795 5796 5796 5796 5796 5797 5797 5798 5798 5799 5799 5800 5801 5801 5801 5801 5801 5802 5802 5802 5802 5802 5803 5804 5804 5804 5805 5806 5806 5807 5807 5808 5809 5810 5811 5812 5813 5814 5815 5816 5816 5817 5818 5819 5819 5820 5821 5821 5822 5823 5824 5824 5825 5826 5827 5829 5830 5830 5832 5833 5833 5833 5833 5834 5833 5832 5833 5834 5835 5836 5836 5837 5839 5840 5839 5841 5841 5841 5840 5841 5841 5842 5843 5844 5845 5846 5846 5847 5848 5849 5850 5850 5851 5852 5853
5790 5790 5790 5791 5791 5791 5792 5792 5792 5792 5792 5793 5793 5794 5794 5795 5795 5795 5796 5796 5797 5797 5797 5797 5797 5797 5798 5799 5800 5800 5801 5801 5801 5802 5802 5803 5803 5804 5805 5806 5806 5807 5808 5809 5810 5811 5812 5813 5814 5815 5816 5816 5817 5818 5818 5819 5820 5821 5821 5822 5823 5824 5825 5827 5827 5828 5830 5831 5831 5831 5831 5831 5831 5830 5830 5832 5833 5834 5834 5835 5836 5838 5837 5837 5839 5840 5838 5839 5840 5841 5841 5842 5843 5844 5845 5845 5846 5847 5848 5849 5850 5851 5851
5787 5787 5787 5788 5788 5788 5789 5788 5788 5788 5789 5790 5790 5791 5791 5791 5791 5792 5792 5793 5793 5793 5793 5793 5794 5794 5795 5796 5796 5797 5798 5798 5799 5799 5800 5801 5801 5801 5802 5803 5804 5805 5806 5806 5807 5808 5809 5810 5811 5812 5813 5814 5814 5815 5816 5817 5817 5818 5819 5820 5821 5821 5822 5824 5825 5826 5828 5828 5828 5828 5826 5827 5828 5828 5829 5830 5831 5831 5832 5833 5834 5835 5834 5834 5836 5837 5837 5837 5838 5839 5840 5841 5841 5842 5843 5844 5845 5845 5846 5847 5848 5849 5850
5784 5784 5784 5784 5784 5785 5785 5785 5785 5785 5786 5786 5786 5787 5787 5788 5788 5788 5789 5789 5790 5790 5790 5790 5791 5791 5791 5792 5793 5794 5795 5795 5796 5796 5797 5798 5798 5799 5799 5800 5801 5802 5803 5804 5805 5805 5806 5807 5808 5809 5810 5811 5812 5812 5813 5814 5815 5816 5816 5817 5818 5819 5820 5821 5822 5824 5825 5826 5826 5826 5825 5825 5825 5826 5827 5828 5829 5829 5830 5831 5831 5831 5831 5833 5834 5834 5835 5836 5836 5837 5838 5839 5839 5840 5841 5842 5843 5844 5845 5846 5846 5847 5848
5781 5781 5781 5781 5781 5781 5781 5781 5781 5781 5782 5782 5783 5783 5784 5784 5785 5785 5785 5786 5786 5786 5786 5787 5787 5788 5788 5789 5790 5791 5791 5792 5793 5793 5794 5795 5795 5796 5796 5797 5798 5799 5799 5801 5801 5802 5803 5804 5805 5806 5807 5808 5809 5810 5811 5811 5812 5813 5814 5815 5816 5816 5817 5818 5819 5820 5821 5822 5822 5823 5824 5823 5822 5822 5825 5826 5826 5827 5828 5828 5829 5829 5830 5831 5832 5833 5834 5834 5834 5835 5836 5837 5837 5838 5839 5840 5841 5842 5843 5844 5845 5846 5847
5776 5776 5777 5777 5777 5777 5777 5777 5777 5778 5778 5778 5779 5780 5780 5781 5781 5781 5781 5782 5782 5782 5783 5783 5784 5784 5786 5786 5786 5787 5788 5789 5789 5790 5790 5791 5792 5792 5793 5794 5795 5795 5796 5797 5798 5800 5800 5801 5802 5803 5804 5805 5806 5807 5808 5809 5810 5810 5811 5812 5813 5814 5815 5816 5816 5817 5818 5819 5819 5820 5821 5821 5820 5820 5822 5823 5824 5825 5826 5826 5827 5828 5830 5829 5831 5832 5832 5832 5832 5833 5834 5835 5836 5836 5837 5838 5839 5841 5841 5842 5843 5844 5845
5772 5772 5773 5773 5773 5773 5774 5774 5774 5773 5774 5774 5775 5776 5776 5777 5777 5777 5778 5778 5778 5779 5779 5779 5780 5781 5781 5782 5783 5784 5785 5785 5786 5786 5787 5787 5788 5789 5790 5791 5791 5792 5793 5794 5795 5796 5797 5798 5799 5800 5801 5802 5803 5804 5805 5806 5807 5808 5808 5809 5810 5811 5812 5813 5814 5815 5815 5816 5817 5817 5818 5819 5819 5820 5820 5821 5821 5822 5823 5824 5825 5827 5829 5827 5827 5829 5831 5830 5830 5831 5832 5833 5834 5835 5836 5836 5838 5839 5840 5841 5841 5843 5844
5768 5768 5768 5768 5769 5769 5770 5770 5770 5770 5770 5770 5771 5771 5772 5773 5773 5773 5774 5774 5774 5775 5775 5776 5776 5776 5777 5778 5779 5780 5781 5781 5781 5782 5783 5784 5785 5786 5786 5787 5788 5789 5790 5791 5792 5793 5794 5795 5796 5797 5798 5799 5800 5801 5802 5803 5804 5805 5806 5807 5808 5808 5809 5810 5811 5812 5813 5813 5814 5814 5815 5816 5817 5818 5819 5819 5819 5820 5821 5822 5824 5826 5827 5825 5824 5826 5828 5827 5828 5830 5831 5831 5832 5833 5834 5835 5836 5837 5838 5839 5840 5841 5842
5764 5764 5764 5764 5765 5765 5766 5766 5766 5766 5766 5766 5766 5767 5768 5769 5769 5770 5770 5770 5771 5771 5771 5771 5772 5772 5773 5774 5775 5776 5776 5777 5778 5778 5779 5781 5781 5782 5783 5784 5785 5786 5786 5788 5789 5790 5791 5792 5793 5794 5795 5796 5797 5798 5799 5800 5801 5802 5803 5804 5805 5806 5807 5807 5808 5809 5810 5811 5811 5811 5812 5812 5814 5816 5817 5817 5817 5818 5819 5820 5821 5822 5823 5823 5823 5824 5824 5825 5826 5827 5828 5829 5830 5831 5832 5833 5834 5835 5836 5837 5838 5839 5841
5759 5760 5759 5760 5760 5761 5761 5761 5762 5762 5761 5762 5763 5763 5764 5765 5766 5766 5766 5766 5767 5767 5768 5768 5768 5769 5770 5770 5771 5772 5772 5773 5774 5774 5775 5776 5778 5779 5780 5780 5781 5782 5783 5784 5786 5787 5788 5789 5790 5791 5792 5793 5794 5795 5796 5797 5798 5799 5800 5801 5802 5803 5804 5805 5806 5806 5807 5808 5809 5809 5809 5810 5811 5812 5814 5816 5816 5816 5816 5817 5818 5819 5819 5822 5822 5821 5822 5824 5824 5825 5826 5827 5828 5829 5831 5831 5832 5833 5835 5836 5836 5838 5839
5754 5755 5755 5755 5756 5756 5756 5757 5757 5758 5758 5759 5759 5760 5760 5761 5762 5762 5763 5763 5763 5764 5764 5764 5765 5766 5766 5766 5767 5768 5768 5769 5770 5771 5771 5773 5774 5775 5776 5777 5778 5779 5780 5781 5782 5783 5784 5786 5787 5788 5789 5790 5791 5792 5793 5794 5795 5796 5797 5798 5799 5800 5801 5802 5803 5804 5805 5805 5806 5806 5807 5807 5808 5810 5811 5812 5812 5813 5813 5815 5816 5817 5817 5819 5819 5818 5821 5822 5822 5822 5824 5825 5826 5827 5829 5830 5831 5832 5833 5834 5835 5836 5837
5750 5750 5750 5751 5751 5751 5752 5752 5753 5753 5754 5755 5756 5756 5756 5757 5757 5758 5759 5760 5760 5760 5761 5761 5761 5762 5763 5763 5764 5764 5764 5765 5766 5766 5767 5769 5770 5771 5772 5773 5774 5775 5776 5778 5779 5780 5781 5782 5783 5784 5786 5787 5788 5789 5790 5791 5792 5793 5794 5796 5796 5797 5798 5799 5800 5801 5802 5802 5803 5804 5804 5805 5806 5807 5808 5810 5811 5810 5811 5815 5816 5814 5814 5816 5816 5816 5818 5819 5820 5820 5821 5823 5824 5825 5826 5828 5829 5830 5831 5832 5833 5834 5835
5745 5745 5746 5746 5746 5746 5747 5748 5748 5749 5750 5751 5751 5752 5753 5753 5753 5754 5755 5755 5756 5756 5757 5757 5758 5758 5759 5760 5760 5760 5760 5761 5761 5762 5763 5765 5766 5767 5769 5770 5771 5772 5773 5774 5776 5777 5778 5779 5780 5781 5782 5784 5785 5786 5787 5788 5789 5790 5791 5792 5794 5795 5796 5796 5797 5798 5799 5800 5801 5801 5801 5802 5803 5804 5805 5807 5810 5810 5810 5812 5811 5810 5811 5813 5816 5816 5814 5816 5817 5818 5819 5821 5822 5823 5824 5826 5827 5828 5829 5830 5831 5832 5833
5740 5740 5741 5741 5741 5742 5742 5743 5744 5744 5745 5746 5747 5748 5749 5749 5749 5749 5750 5751 5752 5752 5753 5754 5755 5755 5756 5756 5757 5757 5756 5756 5757 5758 5759 5761 5762 5763 5765 5766 5767 5768 5769 5771 5772 5773 5775 5776 5777 5778 5780 5781 5782 5783 5784 5785 5786 5787 5788 5790 5791 5792 5793 5794 5795 5796 5796 5797 5798 5798 5799 5799 5800 5801 5803 5804 5806 5808 5810 5810 5809 5809 5809 5810 5812 5813 5812 5814 5816 5816 5817 5818 5819 5821 5822 5823 5825 5826 5827 5828 5829 5830 5831
5735 5735 5736 5736 5736 5737 5737 5738 5739 5739 5740 5741 5742 5743 5744 5744 5745 5745 5746 5746 5747 5748 5750 5750 5751 5752 5752 5753 5754 5754 5753 5753 5753 5753 5755 5756 5758 5759 5761 5762 5763 5765 5766 5767 5768 5770 5771 5772 5773 5775 5776 5777 5779 5780 5781 5782 5783 5784 5786 5786 5788 5789 5790 5791 5792 5793 5794 5795 5795 5796 5796 5797 5798 5799 5800 5801 5803 5805 5807 5806 5807 5809 5810 5809 5810 5811 5812 5812 5812 5813 5816 5816 5816 5818 5820 5821 5822 5824 5825 5826 5827 5828 5830
5731 5731 5731 5731 5731 5732 5732 5733 5734 5734 5735 5736 5737 5738 5739 5740 5740 5741 5742 5742 5742 5743 5745 5746 5747 5748 5749 5750 5751 5751 5750 5750 5750 5750 5751 5752 5754 5756 5757 5758 5760 5761 5762 5763 5765 5766 5767 5769 5770 5771 5773 5774 5775 5776 5777 5779 5780 5781 5782 5783 5785 5786 5787 5788 5789 5790 5791 5792 5793 5793 5794 5794 5795 5796 5797 5798 5800 5802 5805 5804 5805 5807 5810 5809 5808 5809 5810 5810 5810 5811 5814 5814 5814 5816 5817 5819 5820 5821 5823 5824 5825 5826 5827
5726 5726 5726 5726 5726 5727 5728 5728 5729 5729 5730 5731 5732 5733 5734 5735 5736 5736 5737 5738 5738 5739 5740 5741 5742 5743 5744 5746 5746 5747 5747 5747 5747 5748 5748 5749 5750 5751 5753 5755 5756 5757 5759 5760 5761 5762 5764 5765 5766 5768 5769 5770 5771 5773 5774 5775 5777 5778 5779 5780 5781 5783 5784 5785 5786 5787 5788 5789 5790 5791 5791 5792 5792 5793 5794 5796 5797 5798 5800 5801 5802 5804 5805 5806 5809 5809 5806 5806 5807 5809 5811 5812 5813 5814 5815 5816 5818 5819 5821 5822 5823 5824 5826
5721 5721 5721 5721 5721 5722 5723 5723 5724 5725 5725 5726 5727 5727 5729 5730 5731 5731 5732 5733 5734 5735 5735 5736 5737 5738 5739 5741 5742 5743 5744 5744 5745 5745 5746 5746 5747 5748 5749 5751 5752 5754 5755 5756 5758 5759 5760 5761 5763 5764 5766 5767 5768 5769 5771 5772 5773 5775 5776 5777 5778 5779 5781 5782 5783 5784 5785 5786 5787 5788 5789 5789 5790 5791 5791 5793 5794 5795 5796 5798 5800 5800 5801 5802 5803 5805 5806 5805 5806 5807 5807 5809 5811 5813 5813 5814 5816 5817 5819 5820 5821 5822 5823
5716 5716 5716 5716 5716 5717 5718 5718 5719 5720 5721 5721 5721 5722 5723 5724 5725 5726 5727 5728 5729 5730 5731 5732 5733 5734 5735 5736 5738 5739 5740 5741 5741 5742 5743 5744 5744 5745 5746 5747 5748 5750 5751 5753 5754 5755 5756 5758 5759 5761 5762 5763 5764 5766 5767 5768 5770 5771 5772 5774 5775 5776 5777 5779 5780 5781 5782 5783 5784 5785 5786 5787 5787 5788 5789 5790 5791 5792 5793 5794 5796 5797 5798 5800 5800 5800 5802 5803 5805 5806 5807 5807 5809 5811 5812 5813 5814 5815 5816 5818 5819 5820 5821
5711 5711 5711 5711 5711 5712 5713 5713 5714 5715 5716 5716 5716 5717 5718 5719 5720 5721 5722 5723 5724 5725 5726 5727 5728 5729 5731 5732 5733 5734 5736 5736 5737 5738 5740 5741 5741 5742 5743 5743 5745 5746 5747 5749 5750 5751 5753 5754 5756 5757 5758 5760 5761 5762 5763 5765 5766 5768 5769 5771 5771 5773 5774 5775 5776 5778 5779 5780 5781 5782 5783 5784 5785 5785 5786 5787 5788 5789 5790 5791 5792 5794 5797 5798 5799 5800 5801 5801 5802 5803 5804 5806 5808 5810 5811 5810 5811 5813 5814 5815 5816 5818 5819
5705 5705 5706 5706 5706 5707 5707 5708 5709 5710 5711 5711 5712 5712 5713 5714 5715 5716 5717 5718 5719 5720 5721 5722 5723 5725 5726 5727 5728 5730 5731 5732 5733 5734 5736 5737 5738 5738 5739 5740 5741 5742 5743 5745 5746 5747 5749 5750 5752 5753 5754 5756 5757 5758 5760 5761 5763 5764 5766 5767 5768 5770 5771 5772 5773 5775 5776 5777 5778 5779 5780 5781 5782 5782 5783 5784 5785 5786 5787 5788 5790 5791 5794 5796 5796 5797 5798 5799 5801 5803 5803 5804 5806 5808 5808 5808 5809 5810 5811 5813 5814 5815 5816
5700 5700 5700 5700 5701 5701 5702 5703 5704 5705 5706 5706 5707 5708 5708 5709 5710 5711 5712 5713 5714 5715 5716 5717 5719 5720 5721 5722 5724 5725 5726 5727 5729 5730 5731 5732 5734 5735 5736 5736 5737 5738 5740 5741 5742 5744 5745 5746 5748 5749 5751 5752 5753 5755 5756 5758 5759 5761 5762 5764 5765 5766 5767 5769 5770 5771 5772 5774 5775 5776 5777 5778 5779 5780 5781 5781 5782 5783 5784 5786 5787 5788 5790 5792 5794 5795 5795 5796 5798 5801 5803 5802 5803 5803 5803 5806 5808 5808 5808 5810 5811 5813 5814
5694 5694 5695 5695 5695 5696 5696 5697 5698 5700 5701 5701 5702 5702 5703 5704 5705 5706 5707 5708 5709 5711 5712 5713 5714 5715 5716 5718 5719 5720 5721 5722 5724 5725 5727 5728 5729 5730 5731 5732 5733 5735 5736 5737 5738 5740 5741 5742 5744 5745 5746 5748 5749 5751 5752 5754 5756 5757 5759 5761 5761 5763 5764 5765 5766 5768 5769 5770 5772 5773 5774 5775 5776 5777 5778 5779 5779 5780 5781 5782 5784 5786 5787 5789 5791 5792 5793 5795 5796 5798 5801 5800 5800 5799 5799 5802 5805 5805 5806 5807 5809 5810 5811
5688 5689 5689 5689 5690 5690 5691 5692 5693 5694 5695 5696 5696 5697 5698 5699 5700 5701 5702 5703 5704 5706 5707 5708 5709 5711 5712 5713 5714 5716 5716 5717 5719 5720 5722 5723 5725 5726 5727 5728 5729 5730 5732 5733 5735 5736 5737 5739 5740 5741 5742 5744 5745 5747 5749 5751 5752 5754 5756 5757 5758 5760 5761 5762 5763 5764 5765 5767 5768 5770 5771 5772 5773 5774 5775 5776 5776 5777 5778 5779 5781 5782 5784 5786 5788 5789 5791 5793 5794 5795 5797 5796 5796 5797 5799 5800 5801 5803 5804 5805 5807 5808 5809
5683 5683 5683 5684 5684 5685 5686 5686 5687 5688 5689 5690 5691 5692 5692 5693 5694 5695 5696 5698 5699 5701 5702 5703 5704 5706 5707 5708 5710 5711 5712 5713 5714 5715 5717 5718 5720 5721 5722 5723 5724 5726 5727 5729 5731 5732 5733 5735 5736 5737 5738 5739 5741 5743 5745 5746 5748 5750 5751 5753 5755 5756 5757 5758 5759 5761 5762 5763 5765 5766 5768 5769 5770 5771 5772 5772 5773 5774 5775 5776 5778 5780 5781 5783 5785 5786 5788 5791 5792 5792 5792 5793 5794 5796 5798 5798 5798 5800 5802 5803 5804 5806 5807
5677 5677 5678 5678 5679 5679 5680 5681 5681 5683 5684 5685 5685 5686 5687 5688 5689 5690 5691 5693 5694 5696 5697 5698 5699 5701 5702 5703 5705 5706 5707 5708 5709 5711 5712 5713 5715 5716 5717 5719 5720 5721 5723 5724 5726 5727 5729 5730 5731 5733 5734 5735 5737 5739 5741 5742 5744 5746 5748 5750 5751 5752 5754 5755 5756 5756 5758 5760 5761 5763 5764 5766 5767 5768 5769 5769 5770 5771 5772 5773 5775 5776 5778 5781 5782 5784 5785 5787 5789 5790 5790 5791 5792 5794 5795 5796 5797 5798 5799 5801 5802 5803 5804
5671 5672 5672 5673 5673 5674 5674 5675 5676 5677 5678 5679 5680 5681 5681 5682 5683 5684 5686 5687 5689 5690 5692 5693 5694 5695 5697 5698 5700 5701 5702 5703 5705 5706 5707 5708 5710 5711 5712 5714 5715 5717 5718 5719 5721 5723 5724 5726 5727 5728 5730 5731 5733 5735 5736 5738 5740 5742 5744 5746 5747 5748 5749 5751 5752 5753 5754 5756 5757 5759 5761 5762 5763 5765 5766 5766 5767 5768 5769 5770 5771 5773 5775 5777 5779 5781 5782 5783 5785 5786 5786 5788 5790 5791 5793 5795 5796 5796 5797 5798 5799 5800 5801
5665 5666 5666 5667 5668 5668 5669 5670 5670 5671 5672 5673 5674 5675 5676 5676 5677 5679 5680 5681 5683 5685 5686 5687 5689 5690 5691 5693 5695 5696 5697 5699 5700 5701 5702 5703 5705 5706 5707 5709 5711 5712 5713 5714 5716 5718 5719 5721 5722 5724 5725 5727 5728 5730 5732 5734 5736 5737 5739 5741 5742 5744 5745 5746 5748 5749 5751 5752 5753 5755 5757 5758 5760 5761 5762 5763 5764 5765 5766 5767 5768 5770 5772 5774 5776 5778 5779 5781 5781 5782 5783 5785 5786 5788 5790 5793 5793 5793 5795 5796 5796 5797 5799
5658 5660 5661 5661 5662 5663 5663 5664 5665 5666 5666 5667 5668 5669 5670 5671 5672 5673 5674 5675 5677 5678 5680 5681 5683 5684 5686 5688 5690 5691 5693 5694 5695 5696 5697 5698 5700 5701 5703 5704 5706 5707 5708 5709 5711 5712 5714 5716 5718 5719 5721 5722 5724 5726 5728 5730 5731 5733 5735 5736 5738 5739 5741 5742 5744 5745 5746 5748 5749 5751 5753 5755 5756 5757 5759 5760 5761 5762 5763 5764 5765 5767 5769 5771 5773 5775 5776 5777 5779 5780 5781 5782 5784 5785 5786 5788 5789 5791 5793 5793 5794 5794 5796
5652 5653 5654 5655 5656 5656 5657 5658 5659 5660 5661 5662 5662 5663 5664 5665 5666 5667 5669 5670 5671 5672 5674 5676 5677 5679 5681 5682 5684 5686 5688 5689 5690 5691 5692 5693 5695 5696 5698 5699 5701 5702 5703 5704 5706 5707 5709 5711 5712 5714 5716 5718 5720 5721 5723 5725 5726 5728 5730 5732 5733 5735 5736 5737 5739 5741 5742 5744 5745 5747 5749 5751 5752 5754 5755 5756 5757 5759 5760 5761 5762 5763 5765 5767 5769 5771 5773 5774 5776 5777 5778 5780 5781 5783 5784 5784 5786 5788 5789 5790 5791 5792 5794
5645 5646 5647 5648 5649 5650 5651 5652 5653 5654 5655 5656 5657 5658 5659 5660 5661 5662 5663 5664 5665 5666 5668 5670 5672 5674 5675 5677 5679 5681 5682 5684 5685 5686 5687 5688 5690 5691 5693 5694 5696 5697 5698 5699 5701 5702 5703 5705 5707 5709 5711 5713 5715 5717 5718 5720 5722 5724 5725 5727 5729 5731 5732 5733 5735 5737 5738 5740 5741 5743 5745 5746 5748 5750 5751 5752 5754 5755 5756 5757 5759 5760 5761 5763 5766 5767 5769 5771 5772 5774 5775 5776 5778 5780 5782 5783 5783 5784 5786 5789 5790 5790 5791
5637 5639 5640 5641 5642 5643 5644 5646 5646 5648 5649 5650 5651 5652 5653 5654 5655 5656 5657 5658 5659 5661 5662 5664 5666 5668 5670 5671 5673 5675 5677 5678 5680 5681 5682 5683 5685 5687 5688 5690 5691 5692 5693 5695 5696 5697 5698 5700 5702 5704 5706 5709 5710 5712 5714 5715 5717 5719 5721 5723 5725 5726 5727 5729 5731 5732 5734 5736 5737 5739 5741 5742 5744 5746 5747 5749 5750 5751 5753 5754 5755 5756 5758 5760 5762 5764 5766 5767 5769 5770 5771 5773 5774 5776 5779 5780 5780 5781 5783 5786 5788 5789 5790
5630 5631 5632 5634 5636 5637 5638 5639 5640 5641 5643 5644 5645 5646 5647 5649 5650 5651 5651 5652 5653 5655 5656 5658 5660 5661 5664 5666 5668 5670 5671 5673 5674 5675 5677 5678 5680 5681 5683 5685 5686 5687 5689 5690 5691 5692 5693 5695 5697 5700 5702 5704 5706 5707 5709 5710 5712 5714 5716 5718 5720 5721 5723 5725 5726 5728 5730 5731 5733 5735 5736 5738 5740 5741 5743 5745 5746 5748 5749 5751 5752 5753 5755 5756 5758 5760 5761 5763 5765 5766 5768 5770 5771 5772 5774 5776 5777 5778 5780 5781 5785 5787 5787
5622 5623 5625 5626 5628 5630 5631 5632 5633 5635 5636 5637 5639 5640 5641 5643 5644 5645 5646 5646 5647 5649 5651 5652 5653 5655 5657 5659 5661 5664 5666 5667 5668 5670 5672 5673 5674 5676 5678 5680 5681 5682 5684 5686 5687 5687 5689 5690 5692 5695 5697 5699 5701 5702 5704 5705 5707 5709 5711 5713 5715 5716 5718 5720 5722 5723 5725 5727 5729 5731 5732 5734 5736 5737 5739 5741 5742 5744 5746 5747 5748 5750 5751 5752 5754 5756 5757 5759 5761 5763 5764 5766 5767 5769 5770 5771 5772 5774 5776 5778 5780 5781 5783
5614 5615 5617 5618 5620 5622 5623 5625 5626 5628 5629 5631 5632 5634 5635 5636 5637 5638 5640 5641 5642 5643 5645 5646 5648 5649 5651 5653 5655 5658 5660 5661 5663 5665 5666 5667 5669 5671 5673 5674 5675 5677 5679 5681 5682 5683 5684 5686 5688 5690 5692 5694 5696 5697 5699 5700 5702 5704 5706 5708 5710 5712 5714 5716 5717 5719 5721 5722 5724 5726 5728 5730 5731 5733 5735 5736 5738 5740 5741 5743 5745 5746 5747 5748 5750 5751 5753 5755 5757 5759 5761 5762 5764 5766 5767 5768 5769 5770 5772 5774 5776 5777 5779
5605 5607 5609 5611 5612 5614 5616 5617 5619 5620 5622 5624 5626 5627 5628 5629 5631 5632 5633 5635 5636 5637 5639 5641 5642 5644 5646 5647 5649 5651 5655 5656 5657 5659 5661 5661 5663 5666 5667 5668 5670 5673 5675 5676 5677 5679 5680 5681 5683 5685 5687 5689 5691 5692 5694 5695 5697 5699 5701 5703 5705 5707 5709 5711 5712 5714 5716 5718 5720 5722 5724 5725 5727 5729 5730 5732 5734 5736 5737 5739 5741 5742 5743 5745 5746 5748 5749 5751 5753 5755 5757 5758 5760 5762 5763 5764 5766 5767 5769 5771 5773 5774 5776
5597 5599 5601 5603 5605 5606 5608 5610 5611 5612 5614 5616 5618 5620 5621 5622 5624 5625 5626 5628 5629 5631 5633 5634 5636 5638 5640 5642 5643 5645 5648 5650 5651 5653 5655 5656 5658 5661 5662 5664 5665 5667 5670 5671 5672 5674 5676 5677 5678 5681 5682 5684 5685 5687 5689 5691 5692 5694 5696 5698 5700 5702 5704 5706 5708 5710 5711 5713 5715 5717 5719 5721 5722 5724 5726 5728 5730 5731 5733 5735 5736 5738 5740 5741 5742 5744 5746 5747 5749 5751 5753 5755 5756 5758 5759 5761 5762 5763 5766 5767 5769 5771 5772
5589 5591 5592 5594 5596 5598 5600 5602 5603 5605 5606 5609 5611 5612 5614 5616 5616 5618 5619 5621 5623 5624 5626 5628 5630 5632 5634 5636 5638 5640 5642 5644 5646 5647 5649 5651 5653 5655 5656 5658 5659 5661 5663 5666 5667 5668 5671 5673 5674 5675 5677 5679 5680 5681 5683 5686 5687 5689 5691 5693 5695 5697 5699 5701 5703 5705 5706 5708 5711 5712 5714 5716 5718 5720 5721 5723 5725 5727 5729 5731 5732 5734 5736 5737 5738 5740 5742 5744 5745 5747 5749 5751 5752 5754 5756 5757 5759 5760 5762 5764 5766 5767 5768
5581 5582 5584 5586 5588 5590 5592 5594 5596 5597 5599 5601 5603 5605 5607 5608 5609 5611 5612 5614 5616 5617 5620 5621 5624 5626 5628 5630 5631 5634 5636 5638 5640 5642 5643 5645 5647 5649 5650 5651 5654 5656 5659 5661 5661 5663 5666 5669 5670 5671 5672 5674 5676 5676 5678 5680 5682 5684 5686 5688 5690 5692 5694 5696 5698 5700 5702 5704 5706 5708 5709 5711 5713 5715 5717 5719 5721 5723 5725 5726 5728 5730 5731 5733 5735 5736 5738 5740 5741 5743 5745 5747 5749 5751 5752 5754 5755 5756 5758 5760 5761 5763 5764
5572 5574 5576 5578 5580 5582 5584 5586 5588 5590 5591 5593 5595 5597 5599 5601 5602 5603 5605 5607 5608 5610 5612 5615 5617 5619 5621 5623 5626 5628 5630 5632 5634 5636 5638 5639 5641 5643 5644 5646 5649 5651 5653 5655 5656 5658 5661 5664 5666 5666 5666 5669 5670 5671 5672 5675 5677 5679 5681 5683 5685 5687 5689 5691 5693 5695 5697 5699 5701 5703 5705 5706 5708 5710 5712 5714 5716 5718 5721 5722 5724 5726 5727 5729 5731 5733 5734 5736 5738 5740 5741 5743 5745 5747 5749 5750 5751 5753 5755 5757 5760 5761 5761
5564 5566 5567 5569 5571 5573 5575 5577 5580 5582 5583 5586 5588 5590 5591 5593 5595 5597 5599 5600 5601 5603 5605 5607 5610 5612 5614 5616 5619 5621 5624 5626 5628 5630 5632 5633 5635 5637 5639 5641 5643 5644 5646 5648 5651 5654 5656 5659 5660 5660 5661 5663 5665 5666 5667 5670 5672 5674 5676 5678 5680 5682 5684 5686 5688 5690 5692 5695 5696 5698 5700 5702 5704 5706 5707 5710 5712 5714 5716 5718 5720 5721 5723 5725 5727 5729 5731 5732 5734 5736 5738 5740 5741 5743 5745 5746 5748 5749 5751 5754 5755 5756 5758
5555 5557 5559 5561 5563 5565 5567 5569 5571 5573 5576 5578 5580 5582 5584 5586 5588 5590 5592 5593 5595 5596 5598 5601 5603 5605 5607 5609 5611 5614 5616 5619 5621 5624 5626 5627 5629 5631 5633 5635 5636 5638 5641 5643 5646 5648 5650 5653 5654 5654 5654 5659 5661 5661 5662 5665 5667 5669 5671 5673 5675 5677 5679 5681 5683 5686 5687 5690 5691 5693 5695 5697 5699 5701 5703 5705 5707 5709 5711 5713 5715 5717 5719 5721 5723 5725 5726 5729 5731 5732 5734 5736 5738 5740 5741 5743 5744 5746 5747 5749 5751 5752 5754
5546 5549 5551 5552 5554 5556 5559 5561 5563 5566 5568 5570 5572 5574 5576 5579 5581 5582 5584 5586 5588 5590 5592 5594 5596 5598 5600 5602 5605 5607 5610 5612 5615 5617 5619 5621 5623 5625 5627 5628 5630 5633 5636 5637 5640 5642 5644 5646 5647 5648 5651 5655 5656 5656 5657 5659 5661 5663 5666 5668 5670 5672 5674 5676 5678 5681 5683 5685 5687 5689 5691 5692 5694 5696 5698 5700 5702 5704 5706 5708 5711 5712 5715 5716 5718 5720 5722 5724 5726 5729 5731 5733 5735 5736 5738 5740 5741 5742 5744 5745 5747 5749 5751
5538 5540 5542 5544 5546 5548 5551 5553 5555 5557 5560 5562 5564 5566 5569 5571 5573 5575 5577 5580 5581 5583 5585 5587 5589 5591 5593 5595 5598 5600 5602 5604 5607 5611 5613 5614 5616 5618 5620 5622 5624 5626 5628 5631 5634 5636 5638 5639 5641 5643 5647 5649 5649 5650 5653 5654 5656 5657 5660 5662 5665 5667 5669 5671 5673 5676 5678 5680 5682 5684 5686 5688 5690 5691 5693 5696 5698 5700 5701 5704 5706 5708 5710 5712 5714 5716 5718 5720 5722 5725 5726 5729 5731 5733 5735 5736 5737 5739 5740 5742 5743 5746 5748
5530 5532 5534 5536 5538 5540 5542 5545 5547 5550 5552 5554 5556 5559 5561 5563 5565 5567 5570 5572 5574 5576 5578 5580 5582 5584 5586 5588 5590 5592 5594 5596 5600 5604 5606 5607 5608 5611 5614 5616 5617 5619 5621 5624 5627 5630 5632 5633 5635 5638 5641 5642 5643 5645 5649 5649 5651 5653 5655 5657 5659 5661 5663 5666 5668 5671 5673 5675 5677 5679 5681 5683 5685 5687 5688 5691 5693 5695 5697 5699 5701 5703 5705 5707 5709 5711 5714 5716 5718 5720 5722 5725 5727 5729 5731 5732 5734 5736 5737 5738 5740 5741 5743